User: anonymous   Login
Location: Newark
(48.1500°N, 13.1167°E)
Time: 11:02:29
(UTC+00:00)
Language:

AIST 2D - Orbit

View from above orbital plane
View from above orbital plane
View from above satellite
View from above satellite

Ground track
Ground track

The orbit data is extracted from the following two-line orbital elements,

1 41465U 16026B   21335.16627824  .00004312  00000-0  11926-3 0  9997
2 41465  97.0816 213.4243 0011852 125.0920  26.6760 15.37462867313034
Epoch (UTC): 01 December 2021 03:59:26
Eccentricity: 0.0011852
inclination: 97.0816°
perigee height: 445 km
apogee height: 462 km
right ascension of ascending node: 213.4243°
argument of perigee: 125.0920°
revolutions per day: 15.37462867
mean anomaly at epoch: 26.6760°
orbit number at epoch: 31303

The dashed part of the orbit path shows where the satellite is in the earth's shadow,  

DLR